Home   Weather   Labadee   Past weeks

Flag for Haiti Past Weather in Labadee, Haiti — Yesterday and Last 2 Weeks

Now
75 °F

Passing clouds.


Feels Like: 74 °F
Forecast: 75 / 86 °F
Wind: 3 mph from North

Location: Santiago

Current Time: Apr 25, 2017 at 4:45:49 am

Latest Report: Apr 25, 2017 at 4:00 am


Visibility: N/A

Pressure: 29.86 "Hg

Humidity: 94%

Dew Point: 73 °F

Location of LabadeeLocation

Past Weather in Labadee — Graph

°F

Labadee Temperature Yesterday

Maximum temperature yesterday: 86 °F (at 4:00 pm)
Minimum temperature yesterday: 72 °F (at 8:00 am)
Average temperature yesterday: 76 °F

High & Low Weather Summary for the Past Weeks

 TemperatureHumidityPressure
High88 °F (Apr 14, 3:00 pm)100% (Apr 10, 3:00 am)30.07 "Hg (Apr 10, 3:00 am)
Low64 °F (Apr 13, 6:00 am)35% (Apr 14, 3:00 pm)29.80 "Hg (Apr 24, 5:00 pm)
Average75 °F83%29.96 "Hg
* Reported Apr 10 3:00 am — Apr 25 3:00 am, Labadee, Weather by CustomWeather, © 2017

Note: Actual official high and low records may vary slightly from our data, if they occured in-between our weather recording intervals... More about our weather records

Advertising

Labadee Weather History for the Previous 24 Hours

Scroll right to see more
 ConditionsComfort  
Time TempWeatherWind HumidityBarometerVisibility
3:00 am
Tue, Apr 25
75 °FPartly cloudy.No wind94%29.86 "HgN/A
2:00 am73 °FPassing clouds.No wind94%29.86 "HgN/A
1:00 am73 °FPassing clouds.No wind100%29.89 "HgN/A
12:00 am73 °FPassing clouds.No wind100%29.89 "HgN/A
11:00 pm
Mon, Apr 24
73 °FPassing clouds.No wind94%29.89 "HgN/A
10:00 pm77 °FPassing clouds.7 mph89%29.89 "HgN/A
9:00 pm77 °FPartly cloudy.9 mph89%29.86 "HgN/A
8:00 pm77 °FPassing clouds.12 mph94%29.86 "HgN/A
7:00 pm79 °FBroken clouds.14 mph89%29.80 "HgN/A
6:00 pm81 °FBroken clouds.16 mph84%29.80 "HgN/A
5:00 pm81 °FPartly sunny.14 mph79%29.80 "HgN/A
4:00 pm86 °FPartly sunny.12 mph62%29.83 "HgN/A
3:00 pm84 °FMostly cloudy.15 mph70%29.83 "HgN/A
2:00 pm81 °FMostly cloudy.16 mph79%29.86 "HgN/A
1:00 pm82 °FMostly cloudy.16 mph79%29.89 "HgN/A
12:00 pm81 °FPartly sunny.12 mph84%29.89 "HgN/A
11:00 am73 °FMostly cloudy.No wind94%29.92 "HgN/A
10:00 am73 °FMostly cloudy.No wind94%29.92 "HgN/A
9:00 am72 °FMostly cloudy.7 mph100%29.89 "HgN/A
8:00 am72 °FPartly sunny.14 mph94%29.89 "HgN/A
7:00 am73 °FPartly sunny.10 mph100%29.86 "HgN/A
6:00 am73 °FPartly cloudy.9 mph100%29.83 "HgN/A
5:00 am73 °FMostly cloudy.9 mph100%29.83 "HgN/A
4:00 am73 °FLight rain. Mostly cloudy.8 mph100%29.83 "Hg4 mi
Weather by CustomWeather, © 2017

See weather overviewHow to use our weather pages